This demonstration page uses our WeatherBlox Daily Observations layout. Learn more.

Left ArrowRight Arrow

34.74481, -87.66753

Hourly Observations for June 8, 2018

Temp ( °F °C ) Dew Point ( °F °C ) Humidity (%) Winds ( mph kmh ) Pressure ( in mb ) Visibility ( mi km ) Precip ( " mm )
12:53 am 00:53 Clear 73 22.8 70 21.1 90 90 Calm 30.06 1018 10 16 0.00 0.00
1:53 am 01:53 Clear 72 22.2 69 20.6 91 91 Calm 30.05 1018 10 16 0.00 0.00
2:53 am 02:53 Clear 72 22.2 69 20.6 91 91 Calm 30.06 1018 10 16 0.00 0.00
3:53 am 03:53 Clear 70 21.1 68 20 93 93 Calm 30.05 1018 7 11 0.00 0.00
4:53 am 04:53 Clear with Mist and Fog 70 21.1 68 20 93 93 Calm 30.07 1018 6 10 0.00 0.00
5:09 am 05:09 Clear with Mist and Fog 69 20.6 67 19.4 93 93 Calm 30.06 1018 3 4 0.00 0.00
5:18 am 05:18 Clear with Mist and Fog 69 20.6 68 20 96 96 Calm 30.06 1018 5 8 0.00 0.00
5:53 am 05:53 Sunny with Mist and Fog 69 20.6 67 19.4 93 93 Calm 30.09 1019 3 5 0.00 0.00
6:53 am 06:53 Sunny 73 22.8 69 20.6 87 87 Calm 30.10 1019 10 16 0.00 0.00
7:53 am 07:53 Sunny 77 25 70 21.1 79 79 Calm 30.12 1020 10 16 0.00 0.00
8:53 am 08:53 Sunny 81 27.2 68 20 65 65 SE 5 7 30.13 1020 10 16 0.00 0.00
9:53 am 09:53 Sunny 84 28.9 62 16.7 48 48 S 3 6 30.13 1020 10 16 0.00 0.00
10:53 am 10:53 Sunny 88 31.1 60 15.6 39 39 Calm 30.13 1020 10 16 0.00 0.00
11:53 am 11:53 Sunny 90 32.2 60 15.6 37 37 VRB 3 6 30.12 1020 10 16 0.00 0.00
12:53 pm 12:53 Sunny 92 33.3 62 16.7 37 37 VRB 6 9 30.11 1020 10 16 0.00 0.00
1:53 pm 13:53 Sunny 93 33.9 59 15 32 32 VRB 7 11 30.10 1019 10 16 0.00 0.00
2:53 pm 14:53 Sunny 93 33.9 62 16.7 36 36 VRB 6 9 30.09 1019 10 16 0.00 0.00
3:53 pm 15:53 Sunny 93 33.9 58 14.4 31 31 Calm 30.06 1018 10 16 0.00 0.00
4:53 pm 16:53 Sunny 93 33.9 58 14.4 31 31 NE 5 7 30.05 1018 10 16 0.00 0.00
5:53 pm 17:53 Sunny 92 33.3 59 15 33 33 E 6 9 30.04 1017 10 16 0.00 0.00
6:53 pm 18:53 Sunny 89 31.7 61 16.1 39 39 ESE 5 7 30.05 1018 10 16 0.00 0.00
7:53 pm 19:53 Sunny 83 28.3 64 17.8 53 53 E 3 6 30.06 1018 10 16 0.00 0.00
8:53 pm 20:53 Clear 78 25.6 68 20 71 71 Calm 30.06 1018 10 16 0.00 0.00
9:53 pm 21:53 Clear 75 23.9 67 19.4 76 76 Calm 30.09 1019 10 16 0.00 0.00
10:53 pm 22:53 Clear 73 22.8 66 18.9 79 79 Calm 30.10 1019 10 16 0.00 0.00
11:53 pm 23:53 Clear 71 21.7 67 19.4 87 87 E 3 6 30.09 1019 10 16 0.00 0.00

Powered by AerisWeather